C8053 Weather Reports


time (UTC)temp
F
wind
direction
speed
knots
gust
knots
rain 1hr
in
rain 24hr
in
rain mn
in
humidity
%
barometer
mb
20260507223927 54 18 0.0 0.0 0.00 0.02 0.00 90 1014.7
20260507223429 54 20 0.0 0.9 0.00 0.02 0.00 90 1014.7
20260507222927 54 9 0.9 1.7 0.00 0.02 0.00 90 1014.7
20260507222430 55 4 0.0 1.7 0.00 0.02 0.00 90 1014.6
20260507221928 55 28 0.9 2.6 0.00 0.02 0.00 90 1014.7
20260507221429 55 23 0.0 0.9 0.00 0.02 0.00 90 1014.6
20260507220928 55 23 0.0 0.9 0.00 0.02 0.00 90 1014.6
20260507220428 55 23 0.0 0.0 0.00 0.02 0.00 90 1014.6
20260507215927 55 23 0.0 0.0 0.00 0.02 0.00 90 1014.6
20260507214928 55 23 0.0 0.9 0.00 0.02 0.02 90 1014.4
20260507214427 55 24 0.0 0.0 0.00 0.02 0.02 90 1014.4
20260507213927 55 23 0.9 2.6 0.00 0.02 0.02 90 1014.3
20260507213428 55 23 0.0 1.7 0.00 0.02 0.02 90 1014.3
20260507212928 55 29 0.9 1.7 0.00 0.02 0.02 90 1014.3
20260507211928 55 11 0.0 0.0 0.00 0.02 0.02 90 1014.3
20260507211429 56 11 0.0 0.0 0.00 0.02 0.02 90 1014.3
20260507210427 56 11 0.0 0.0 0.00 0.02 0.02 90 1014.3
20260507205927 56 11 0.0 0.0 0.00 0.02 0.02 90 1014.4
20260507205428 56 11 0.0 0.0 0.00 0.02 0.02 89 1014.4
20260507204928 56 11 0.0 0.0 0.00 0.02 0.02 89 1014.4
20260507204427 56 11 0.0 0.0 0.00 0.02 0.02 89 1014.4
20260507203927 56 11 0.0 0.0 0.00 0.02 0.02 89 1014.4
20260507203428 56 11 0.0 0.0 0.00 0.02 0.02 89 1014.4
20260507202934 56 11 0.0 0.0 0.00 0.02 0.02 89 1014.4
20260507202427 56 11 0.0 0.0 0.00 0.02 0.02 89 1014.3
20260507201927 56 11 0.0 0.0 0.00 0.02 0.02 89 1014.3
20260507201427 57 11 0.0 0.0 0.00 0.02 0.02 89 1014.3
20260507200927 57 11 0.0 0.0 0.00 0.02 0.02 88 1014.3
20260507195928 57 11 0.0 1.7 0.00 0.02 0.02 88 1014.1
20260507194927 57 47 0.0 0.9 0.00 0.02 0.02 88 1014.1
20260507193928 58 54 0.0 0.9 0.00 0.02 0.02 87 1014.1
20260507193436 58 54 0.0 0.0 0.00 0.02 0.02 87 1014.0
20260507192943 58 54 0.0 0.0 0.00 0.02 0.02 87 1014.1
20260507191943 59 54 0.0 0.0 0.00 0.02 0.02 86 1014.0
20260507191427 59 54 0.0 0.0 0.00 0.02 0.02 86 1014.0
20260507185927 60 57 0.0 0.0 0.00 0.02 0.02 85 1013.9
20260507185427 61 57 0.0 0.0 0.00 0.02 0.02 85 1013.8
20260507184928 61 57 0.0 0.0 0.00 0.02 0.02 85 1013.9
20260507184428 61 57 0.0 0.0 0.00 0.02 0.02 84 1014.0
20260507183928 61 57 0.0 1.7 0.00 0.02 0.02 84 1014.0
20260507183428 61 113 0.9 2.6 0.00 0.02 0.02 84 1014.0
20260507182929 61 82 0.0 1.7 0.00 0.02 0.02 84 1014.0
20260507181928 61 130 0.9 2.6 0.00 0.02 0.02 83 1013.9
20260507180928 61 33 0.0 0.0 0.00 0.02 0.02 83 1013.8
20260507180428 61 49 0.9 4.3 0.00 0.02 0.02 83 1013.9
20260507175928 62 184 0.0 1.7 0.00 0.02 0.02 83 1013.9
20260507175429 62 193 0.9 2.6 0.00 0.02 0.02 83 1013.9
20260507174927 62 184 1.7 2.6 0.00 0.02 0.02 83 1013.9
20260507174430 62 131 0.0 0.9 0.00 0.02 0.02 83 1013.8
20260507173928 62 163 0.0 0.9 0.00 0.02 0.02 83 1013.9
20260507173428 62 151 0.0 2.6 0.00 0.02 0.02 82 1013.9
20260507171428 63 245 1.7 4.3 0.00 0.02 0.02 82 1014.0
20260507165928 64 250 2.6 6.1 0.00 0.06 0.02 81 1013.8
20260507165427 64 200 3.5 6.1 0.00 0.08 0.02 82 1013.7
20260507164927 64 161 1.7 4.3 0.00 0.09 0.02 82 1013.7
20260507164427 64 216 2.6 8.7 0.00 0.09 0.02 81 1013.7
20260507163927 64 211 4.3 10.4 0.00 0.09 0.02 80 1013.8
20260507163428 65 214 4.3 7.8 0.00 0.11 0.02 80 1013.8
20260507162928 65 219 3.5 10.4 0.00 0.11 0.02 80 1013.8
20260507162427 65 213 2.6 8.7 0.00 0.12 0.02 79 1013.7
20260507161928 66 193 3.5 8.7 0.00 0.12 0.02 79 1013.7
20260507160427 65 299 1.7 7.8 0.00 0.12 0.02 78 1013.7
20260507155927 66 85 1.7 7.8 0.00 0.12 0.02 76 1013.7
20260507155434 67 248 1.7 6.1 0.00 0.12 0.02 75 1013.7
20260507154928 67 243 2.6 7.0 0.00 0.12 0.02 77 1013.6
20260507154427 67 130 2.6 6.1 0.00 0.12 0.02 76 1013.8
20260507153929 68 110 1.7 5.2 0.00 0.12 0.02 75 1013.8
20260507152928 68 211 4.3 7.0 0.00 0.12 0.02 76 1013.7
20260507152428 68 254 1.7 6.1 0.00 0.12 0.02 77 1013.7
20260507151928 68 230 2.6 5.2 0.00 0.12 0.02 78 1013.8
20260507151433 67 208 3.5 10.4 0.02 0.12 0.02 77 1013.8
20260507150927 67 340 4.3 7.0 0.02 0.12 0.02 76 1013.9
20260507150428 67 221 0.9 2.6 0.02 0.12 0.02 77 1013.9
20260507145928 67 211 2.6 6.1 0.02 0.12 0.02 77 1013.8
20260507144927 67 211 5.2 8.7 0.02 0.12 0.02 77 1013.8
20260507144427 67 216 2.6 7.8 0.02 0.12 0.02 76 1013.7
20260507143928 67 203 2.6 10.4 0.02 0.12 0.02 78 1013.8
20260507143430 67 165 2.6 11.3 0.02 0.12 0.02 77 1013.9
20260507142929 67 227 4.3 8.7 0.02 0.12 0.02 76 1013.8
20260507142429 67 184 5.2 8.7 0.02 0.12 0.02 76 1013.9
20260507141928 59 43 0.9 1.7 0.02 0.13 0.02 84 1011.9
20260507040935 59 73 1.7 2.6 0.00 0.12 0.00 84 1011.9
20260507040435 59 119 0.9 5.2 0.00 0.13 0.00 83 1011.9
20260507035935 59 79 2.6 6.1 0.00 0.14 0.00 84 1012.0
20260507035436 59 76 1.7 6.1 0.00 0.15 0.00 84 1011.9
20260507034936 59 107 0.9 4.3 0.00 0.16 0.00 83 1011.9
20260507034435 59 41 0.9 2.6 0.00 0.16 0.00 83 1012.0
20260507033436 59 83 2.6 6.1 0.00 0.16 0.00 83 1012.0
20260507031435 59 54 1.7 2.6 0.00 0.16 0.00 83 1012.0
20260507030935 59 76 0.9 4.3 0.00 0.16 0.00 83 1012.0
20260507030436 59 123 3.5 7.0 0.00 0.16 0.00 83 1011.9
20260507025935 59 101 2.6 7.8 0.00 0.16 0.00 83 1011.9
20260507024935 59 99 1.7 4.3 0.00 0.16 0.00 83 1011.8
20260507024438 59 145 1.7 2.6 0.00 0.17 0.00 83 1011.8
20260507023436 59 67 0.9 6.1 0.00 0.17 0.00 83 1011.9
20260507022936 59 58 1.7 4.3 0.00 0.17 0.00 83 1011.8
20260507022435 59 111 1.7 6.1 0.00 0.18 0.00 83 1011.8
20260507021935 59 103 2.6 10.4 0.00 0.18 0.00 83 1011.8
20260507021436 59 87 1.7 6.1 0.00 0.20 0.00 83 1011.9
20260507020935 59 92 1.7 4.3 0.00 0.20 0.00 83 1011.8
20260507015935 59 82 2.6 5.2 0.00 0.23 0.00 83 1011.8
20260507015435 59 90 0.9 5.2 0.00 0.25 0.00 83 1011.8
20260507014935 59 86 2.6 8.7 0.00 0.27 0.00 83 1011.8
20260507013936 59 119 2.6 5.2 0.00 0.31 0.00 83 1011.7
20260507013435 59 42 0.9 4.3 0.00 0.33 0.00 84 1011.7
20260507012935 59 69 0.9 2.6 0.00 0.36 0.00 83 1011.8
20260507012435 59 60 1.7 6.1 0.00 0.39 0.00 83 1011.8
20260507011935 59 116 1.7 6.1 0.00 0.43 0.00 83 1011.8
20260507011435 60 18 0.9 2.6 0.00 0.50 0.00 83 1011.9
20260507010935 60 346 0.9 5.2 0.00 0.56 0.00 83 1011.9
20260507010442 59 117 0.9 2.6 0.00 0.57 0.00 83 1011.9
20260507005936 59 289 4.3 7.8 0.00 0.57 0.00 83 1011.9
20260507005435 59 332 0.9 7.8 0.00 0.57 0.00 83 1011.9
20260507004935 59 128 1.7 7.0 0.00 0.59 0.00 83 1012.0
20260507004435 59 339 0.9 2.6 0.00 0.59 0.00 84 1012.1
20260507003935 59 38 0.9 4.3 0.00 0.60 0.00 84 1012.0
20260507003435 59 357 0.9 4.3 0.00 0.60 0.00 83 1011.9
20260507002436 59 17 1.7 5.2 0.00 0.60 0.00 83 1011.8
20260507001435 59 289 0.9 6.1 0.00 0.61 0.00 84 1011.8
20260507000936 60 352 0.9 5.2 0.00 0.61 0.00 83 1011.7
20260507000437 60 322 1.7 6.1 0.00 0.61 0.00 83 1011.8
20260506234935 60 337 1.7 6.1 0.00 0.61 0.00 83 1011.9
20260506234435 60 349 0.0 5.2 0.00 0.61 0.00 82 1011.9
20260506233936 60 48 2.6 4.3 0.00 0.61 0.00 82 1012.0
20260506233435 60 359 1.7 4.3 0.00 0.61 0.00 82 1012.0
20260506232437 60 41 0.9 6.1 0.00 0.61 0.00 82 1012.0
20260506231935 60 75 1.7 8.7 0.00 0.61 0.00 81 1011.9
20260506231436 60 21 1.7 7.0 0.00 0.61 0.00 81 1011.9
20260506230935 60 27 1.7 4.3 0.00 0.61 0.00 81 1011.9
20260506230436 60 336 2.6 6.1 0.00 0.61 0.00 81 1011.9
20260506225436 60 53 0.9 6.1 0.00 0.61 0.00 81 1012.0
20260506224935 60 87 1.7 4.3 0.00 0.61 0.00 82 1012.0
20260506224435 60 315 0.9 7.0 0.00 0.61 0.00 82 1012.0